Terug naar catalogus

STARLINK-32851

ActiefCommunicatieVLEO
NORAD 62810·PAYLOAD·🇺🇸 United States

Gelanceerd Jan 24, 2025 vanaf Vandenberg Space Force Base

Loading…

Volgende Passages (komende 24 uur)

TLE

VersSource: CelesTrak SupGP

Epoch: Sep 14, 2026, 21:12 UTC

1 62810C 25018E   26257.88381944 -.00063521  00000+0 -18759-2 0  2577
2 62810  53.1588 150.1879 0001319  86.6187 276.1760 15.34436155    17

Volg STARLINK-32851 in realtime met AllMySat

Download on the App Store